Spokane, WA
on Sunday, February 3, 2013

Sunday
Previous Day Next Day
Daily Summary
 ActualAverageRecord
Temperature
Mean Temperature °F 32°F  
Max Temperature 44°F 37°F 54°F (1909)
Min Temperature 28°F 26°F -21°F (1883)
Degree Days
Heating Degree Days 29 33  
Month to date heating degree days 97 101  
Since 1 July heating degree days 3765 4034  
Cooling Degree Days 0 0  
Month to date cooling degree days 0 0  
Year to date cooling degree days 0 0  
Moisture
Dew Point 30°F   
Average Humidity 88    
Maximum Humidity 100    
Minimum Humidity 75    
Precipitation
Precipitation 0.00 in 0.04 in 0.70 in (1963)
Month to date precipitation 0.00 0.13  
Year to date precipitation 1.63 1.92  
Snow
Snow 0.00 in 0.30 in 7.10 in (1913)
Month to date snowfall 0.0 0.9  
Since 1 July snowfall 38.2 34.4  
Snow Depth T in   
Wind
Wind Speed 2 mph   
Max Wind Speed 8 mph   
Max Gust Speed 10 mph   
Visibility 1 miles   
Events Fog   

Key: T is trace of precipitation, MM is missing value
Source: NWS Daily Summary
Time(PST)TemperatureDew PointHumidity Pressure Visibility Wind DirectionWind SpeedGust SpeedPrecipitationEvents Conditions
12:53 AM 33.1°F 27.0°F 78% 30.26 in 0.1 miles Calm Calm - N/A Fog Fog
1:53 AM 32.0°F 27.0°F 82% 30.26 in 0.1 miles Calm Calm - N/A Fog Fog
2:53 AM 33.1°F 28.0°F 82% 30.25 in 0.1 miles Calm Calm - N/A Fog Fog
3:53 AM 27.9°F 25.2°F 90% 30.24 in 0.1 miles Calm Calm - N/A Fog Light Freezing Fog
4:53 AM 27.5°F 27.0°F 98% 30.22 in 0.1 miles SE 3.5 mph - N/A Fog Light Freezing Fog
5:32 AM 28.4°F 26.6°F 93% 30.16 in 1.0 miles Calm Calm - N/A   Overcast
5:53 AM 27.9°F 27.3°F 98% 30.22 in 1.0 miles Calm Calm - N/A   Overcast
6:05 AM 28.4°F 28.4°F 100% 30.15 in 0.2 miles Calm Calm - N/A   Overcast
6:53 AM 29.7°F 28.4°F 95% 30.23 in 0.2 miles Calm Calm - N/A   Overcast
7:03 AM 30.2°F 28.4°F 93% 30.16 in 0.2 miles Calm Calm - N/A   Overcast
7:35 AM 30.2°F 28.4°F 93% 30.17 in 0.2 miles ESE 3.5 mph - N/A Fog Light Freezing Fog
7:53 AM 30.9°F 28.0°F 89% 30.23 in 0.2 miles ESE 3.5 mph - N/A Fog Light Freezing Fog
8:53 AM 32.0°F 28.9°F 88% 30.24 in 0.2 miles ESE 3.5 mph - N/A Fog Fog
9:01 AM 32.0°F 28.4°F 87% 30.18 in 0.2 miles SE 3.5 mph - N/A Fog Fog
9:44 AM 33.8°F 30.2°F 87% 30.18 in 0.2 miles SSE 4.6 mph - N/A Fog Fog
9:53 AM 33.1°F 30.9°F 92% 30.23 in 0.2 miles SSE 6.9 mph - N/A Fog Fog
10:25 AM 33.8°F 30.2°F 87% 30.18 in 2.5 miles SSE 6.9 mph - N/A   Overcast
10:40 AM 33.8°F 30.2°F 87% 30.18 in 2.5 miles South 4.6 mph - N/A   Overcast
10:53 AM 34.0°F 32.0°F 92% 30.24 in 2.5 miles SSE 4.6 mph - N/A   Overcast
11:47 AM 33.8°F 32.0°F 93% 30.15 in 4.0 miles South 5.8 mph - N/A   Overcast
11:53 AM 34.0°F 32.0°F 92% 30.22 in 4.0 miles South 4.6 mph - N/A   Overcast
12:53 PM 34.0°F 32.0°F 92% 30.21 in 6.0 miles South 4.6 mph - N/A   Overcast
1:26 PM 33.8°F 32.0°F 93% 30.14 in 2.5 miles SW 3.5 mph - N/A   Overcast
1:47 PM 33.8°F 33.8°F 100% 30.12 in 0.8 miles South 3.5 mph - N/A   Overcast
1:53 PM 34.0°F 33.1°F 96% 30.18 in 0.8 miles Calm Calm - N/A   Overcast
2:05 PM 33.8°F 33.8°F 100% 30.12 in 0.8 miles SSW 3.5 mph - N/A   Overcast
2:38 PM 33.8°F 32.0°F 93% 30.14 in 2.0 miles Calm Calm - N/A   Overcast
2:53 PM 34.0°F 32.0°F 92% 30.20 in 2.0 miles WSW 3.5 mph - N/A   Overcast
3:53 PM 34.0°F 32.0°F 92% 30.19 in 2.0 miles Calm Calm - N/A   Overcast
4:44 PM 33.8°F 32.0°F 93% 30.11 in 2.0 miles Calm Calm - N/A   Overcast
4:53 PM 35.1°F 33.1°F 92% 30.17 in 2.0 miles Calm Calm - N/A   Overcast
5:32 PM 33.8°F 32.0°F 93% 30.11 in 1.0 miles NE 3.5 mph - N/A   Overcast
5:44 PM 33.8°F 32.0°F 93% 30.11 in 1.0 miles Calm Calm - N/A   Overcast
5:53 PM 33.1°F 32.0°F 96% 30.17 in 1.0 miles Calm Calm - N/A   Overcast
6:53 PM 33.1°F 32.0°F 96% 30.16 in 0.8 miles Calm Calm - N/A   Overcast
7:53 PM 33.8°F 32.0°F 93% 30.09 in 0.5 miles Calm Calm - N/A   Overcast
8:53 PM 32.0°F 30.9°F 96% 30.14 in 0.5 miles Calm Calm - N/A   Overcast
9:53 PM 33.1°F 32.0°F 96% 30.14 in 0.5 miles South 3.5 mph - N/A   Overcast
10:53 PM 33.1°F 30.9°F 92% 30.14 in 0.5 miles Calm Calm - N/A   Mist
11:53 PM 33.1°F 32.0°F 96% 30.13 in 0.5 miles SSW 4.6 mph - N/A   Overcast
Moon Phase
Feb. 03 Feb. 10 Feb. 17 Feb. 25 Mar. 04
Sunrise:07:13 AM (PST) Moon Rise:12:48 AM (PST)2/3
Sunset:04:55 PM (PST) Moon Set:10:32 AM (PST)2/3

Copyright © 2014 The Weather Underground, Inc.